FW0979 Weather Reports


time (UTC)temp
C
wind
direction
speed
KPH
gust
KPH
rain 1hr
cm
rain 24hr
cm
rain mn
cm
humidity
%
barometer
mb
20260902224511 36 205 4.8 12.9 0.00 0.00 0.00 24 1005.4
20260902223012 36 180 6.4 16.1 0.00 0.00 0.00 24 1005.6
20260902221508 35 178 3.2 9.7 0.00 0.00 0.00 25 1005.6
20260902220011 36 360 6.4 16.1 0.00 0.00 0.00 25 1005.8
20260902214505 36 162 9.7 20.9 0.00 0.00 0.00 25 1005.8
20260902213006 36 224 9.7 20.9 0.00 0.00 0.00 24 1005.9
20260902211503 36 269 11.3 22.5 0.00 0.00 0.00 24 1006.0
20260902210002 36 158 9.7 24.1 0.00 0.00 0.00 25 1006.1
20260902204559 36 178 8.0 19.3 0.00 0.00 0.00 24 1006.3
20260902203056 37 193 11.3 19.3 0.00 0.00 0.00 23 1006.6
20260902201555 37 229 9.7 22.5 0.00 0.00 0.00 23 1006.9
20260902200052 37 234 8.0 17.7 0.00 0.00 0.00 24 1007.1
20260902194550 37 196 4.8 16.1 0.00 0.00 0.00 25 1007.5
20260902193048 37 217 3.2 14.5 0.00 0.00 0.00 25 1007.6
20260902191548 36 203 6.4 20.9 0.00 0.00 0.00 26 1008.0
20260902190040 36 179 4.8 16.1 0.00 0.00 0.00 26 1008.1
20260902184536 34 213 9.7 0.0 0.00 0.00 0.00 29 1008.4
20260902183035 34 236 4.8 16.1 0.00 0.00 0.00 29 1008.8
20260902181534 33 228 9.7 19.3 0.00 0.00 0.00 28 1009.1
20260902180035 34 195 9.7 24.1 0.00 0.00 0.00 28 1009.4
20260902174533 34 269 9.7 17.7 0.00 0.00 0.00 28 1009.6
20260902173034 33 259 9.7 19.3 0.00 0.00 0.00 30 1009.8
20260902171527 33 245 6.4 17.7 0.00 0.00 0.00 33 1009.9
20260902170024 31 178 8.0 19.3 0.00 0.00 0.00 35 1010.0
20260902164522 31 229 8.0 19.3 0.00 0.00 0.00 35 1010.3
20260902163022 32 233 8.0 19.3 0.00 0.00 0.00 35 1010.2
20260902161535 32 190 6.4 19.3 0.00 0.00 0.00 37 1010.2
20260902160016 30 219 8.0 17.7 0.00 0.00 0.00 41 1010.2
20260902154512 28 195 8.0 17.7 0.00 0.00 0.00 43 1010.3
20260902153007 28 214 6.4 22.5 0.00 0.00 0.00 45 1010.2
20260902151509 28 216 8.0 22.5 0.00 0.00 0.00 45 1010.2
20260902150001 28 195 11.3 19.3 0.00 0.00 0.00 46 1010.1
20260902144603 27 206 9.7 20.9 0.00 0.00 0.00 47 1010.1
20260902143049 26 360 12.9 22.5 0.00 0.00 0.00 50 1010.0
20260902141548 26 192 8.0 20.9 0.00 0.00 0.00 51 1010.2
20260902140049 25 179 11.3 24.1 0.00 0.00 0.00 53 1010.2
20260902134546 25 178 9.7 20.9 0.00 0.00 0.00 54 1010.2
20260902133040 24 181 8.0 19.3 0.00 0.00 0.00 56 1009.9
20260902131539 23 199 8.0 20.9 0.00 0.00 0.00 57 1009.9
20260902130041 23 205 8.0 14.5 0.00 0.00 0.00 58 1009.6
20260902124533 23 203 6.4 12.9 0.00 0.00 0.00 58 1009.4
20260902123027 23 200 8.0 17.7 0.00 0.00 0.00 58 1009.3
20260902121524 23 180 8.0 16.1 0.00 0.00 0.00 57 1009.1
20260902120026 23 190 9.7 17.7 0.00 0.00 0.00 57 1009.1
20260902114535 24 199 9.7 19.3 0.00 0.00 0.00 57 1008.9
20260902113014 24 179 6.4 14.5 0.00 0.00 0.00 56 1008.9
20260902111509 24 163 6.4 14.5 0.00 0.00 0.00 56 1008.9
20260902110008 24 191 4.8 12.9 0.00 0.00 0.00 55 1008.9
20260902104507 24 178 8.0 12.9 0.00 0.00 0.00 54 1009.0
20260902103002 24 198 6.4 16.1 0.00 0.00 0.00 54 1009.0
20260902101557 25 360 6.4 14.5 0.00 0.00 0.00 53 1009.0
20260902100056 25 193 6.4 14.5 0.00 0.00 0.00 52 1008.9
20260902094554 25 161 6.4 12.9 0.00 0.00 0.00 52 1008.8
20260902093053 25 195 6.4 12.9 0.00 0.00 0.00 51 1009.0
20260902091553 25 198 6.4 11.3 0.00 0.00 0.00 51 1009.1
20260902090054 25 178 6.4 9.7 0.00 0.00 0.00 51 1009.1
20260902084542 26 180 4.8 11.3 0.00 0.00 0.00 51 1009.2
20260902083045 26 193 6.4 11.3 0.00 0.00 0.00 51 1009.4
20260902081542 26 203 4.8 8.0 0.00 0.00 0.00 51 1009.4
20260902080038 26 236 4.8 11.3 0.00 0.00 0.00 51 1009.4
20260902074547 26 240 1.6 4.8 0.00 0.00 0.00 52 1009.7
20260902073037 26 240 1.6 4.8 0.00 0.00 0.00 51 1009.9
20260902071533 26 240 1.6 6.4 0.00 0.00 0.00 51 1009.8
20260902070029 26 240 3.2 6.4 0.00 0.00 0.00 51 1009.5
20260902064533 26 240 3.2 8.0 0.00 0.00 0.00 51 1009.1
20260902063025 26 242 6.4 11.3 0.00 0.00 0.00 51 1009.1
20260902061536 26 250 9.7 16.1 0.00 0.00 0.00 51 1009.3
20260902060019 26 283 16.1 30.6 0.00 0.00 0.00 51 1009.4
20260902054533 26 264 17.7 33.8 0.00 0.00 0.00 51 1009.7
20260902053021 26 263 9.7 19.3 0.00 0.00 0.00 48 1009.7
20260902051515 26 259 9.7 22.5 0.00 0.00 0.00 49 1009.8
20260902050016 27 252 14.5 25.7 0.00 0.00 0.00 45 1010.1
20260902044515 28 258 9.7 25.7 0.00 0.00 0.00 42 1009.7
20260902043015 29 158 11.3 25.7 0.00 0.00 0.00 36 1009.3
20260902041515 29 142 9.7 20.9 0.00 0.00 0.00 36 1009.1
20260902040013 29 142 11.3 20.9 0.00 0.00 0.00 36 1008.9
20260902034521 29 131 9.7 19.3 0.00 0.00 0.00 35 1008.8
20260902033011 30 146 9.7 20.9 0.00 0.00 0.00 35 1008.6
20260902031514 30 129 11.3 22.5 0.00 0.00 0.00 34 1008.3
20260902030011 30 160 11.3 19.3 0.00 0.00 0.00 34 1008.1
20260902024511 30 139 11.3 22.5 0.00 0.00 0.00 34 1007.7
20260902023011 30 127 9.7 20.9 0.00 0.00 0.00 34 1007.5
20260902021508 31 127 9.7 16.1 0.00 0.00 0.00 34 1007.3
20260902020008 31 134 9.7 19.3 0.00 0.00 0.00 33 1007.1
20260902014508 31 142 8.0 17.7 0.00 0.00 0.00 33 1007.0
20260902013011 31 134 6.4 17.7 0.00 0.00 0.00 32 1006.8
20260902011510 32 120 8.0 17.7 0.00 0.00 0.00 31 1006.7
20260902010011 32 113 8.0 17.7 0.00 0.00 0.00 31 1006.5
20260902004506 33 156 9.7 20.9 0.00 0.00 0.00 30 1006.3
20260902003005 33 134 9.7 17.7 0.00 0.00 0.00 29 1006.3
20260902001505 33 139 11.3 20.9 0.00 0.00 0.00 30 1006.3
20260902000013 33 136 11.3 22.5 0.00 0.00 0.00 30 1006.4
20260901234503 33 142 9.7 20.9 0.00 0.00 0.00 30 1006.3
20260901233003 33 155 11.3 20.9 0.00 0.00 0.00 30 1006.4
20260901231505 33 140 9.7 20.9 0.00 0.00 0.00 29 1006.3
20260901230004 34 122 12.9 27.4 0.00 0.00 0.00 29 1006.2